DB0NLS-15 Weather Reports


time (UTC)temp
C
wind
direction
speed
KPH
gust
KPH
rain 1hr
cm
rain 24hr
cm
rain mn
cm
humidity
%
barometer
mb
20260504034520 15 153 3.2 3.2 0.00 0.00 0.00 64 1001.2
20260504033517 15 145 3.2 6.4 0.00 0.00 0.00 63 1001.2
20260504032615 15 0.0 0.0 0.00 0.00 0.00 62 1001.2
20260504031612 16 203 0.0 3.2 0.00 0.00 0.00 59 1001.3
20260504030609 16 206 3.2 3.2 0.00 0.00 0.00 59 1001.4
20260504025607 16 225 3.2 6.4 0.00 0.00 0.00 58 1001.3
20260504024604 16 237 4.8 6.4 0.00 0.00 0.00 57 1001.3
20260504023602 16 215 4.8 6.4 0.00 0.00 0.00 57 1001.4
20260504022559 16 232 1.6 6.4 0.00 0.00 0.00 57 1001.2
20260504021556 16 215 1.6 3.2 0.00 0.00 0.00 56 1001.3
20260504020554 16 191 1.6 3.2 0.00 0.00 0.00 57 1001.0
20260504015551 16 183 3.2 3.2 0.00 0.00 0.00 58 1001.1
20260504014548 16 175 3.2 6.4 0.00 0.00 0.00 56 1001.0
20260504013545 15 187 3.2 6.4 0.00 0.00 0.00 58 1001.0
20260504012543 16 167 3.2 6.4 0.00 0.00 0.00 58 1001.0
20260504011540 16 180 3.2 6.4 0.00 0.00 0.00 57 1000.8
20260504010538 16 163 3.2 3.2 0.00 0.00 0.00 57 1000.7
20260504005535 16 170 3.2 6.4 0.00 0.00 0.00 56 1000.5
20260504004532 16 158 1.6 3.2 0.00 0.00 0.00 55 1000.3
20260504003530 17 153 1.6 3.2 0.00 0.00 0.00 53 1000.3
20260504002527 17 0.0 0.0 0.00 0.00 0.00 52 1000.2
20260504001524 17 203 1.6 3.2 0.00 0.00 0.00 51 1000.2
20260504000522 17 0.0 0.0 0.00 0.00 0.00 50 1000.3
20260503235519 18 174 3.2 6.4 0.00 0.00 0.00 48 1000.2
20260503234517 18 236 1.6 3.2 0.00 0.00 0.00 48 1000.1
20260503233614 18 171 1.6 6.4 0.00 0.00 0.00 48 1000.1
20260503232611 19 240 3.2 6.4 0.00 0.00 0.00 47 1000.1
20260503231609 19 265 6.4 12.9 0.00 0.00 0.00 46 1000.3
20260503230606 20 182 6.4 14.5 0.00 0.00 0.00 46 999.9
20260503225603 19 181 4.8 12.9 0.00 0.00 0.00 47 999.7
20260503224601 18 159 4.8 11.3 0.00 0.00 0.00 49 999.7
20260503223558 18 145 3.2 6.4 0.00 0.00 0.00 47 999.7
20260503222556 19 208 1.6 6.4 0.00 0.00 0.00 46 999.9
20260503221553 19 236 1.6 6.4 0.00 0.00 0.00 45 999.8
20260503220550 19 216 3.2 6.4 0.00 0.00 0.00 45 999.8
20260503215548 18 222 6.4 11.3 0.00 0.00 0.00 46 999.7
20260503214545 18 158 0.0 3.2 0.00 0.00 0.00 47 999.4
20260503213542 18 0.0 3.2 0.00 0.00 0.00 47 999.4
20260503212539 17 0.0 0.0 0.00 0.00 0.00 49 999.2
20260503211536 18 0.0 0.0 0.00 0.00 0.00 48 999.4
20260503210534 18 0.0 0.0 0.00 0.00 0.00 47 999.3
20260503205531 18 0.0 0.0 0.00 0.00 0.00 48 999.4
20260503204528 18 135 0.0 3.2 0.00 0.00 0.00 46 999.4
20260503203526 17 0.0 0.0 0.00 0.00 0.00 49 999.4
20260503202523 17 0.0 0.0 0.00 0.00 0.00 49 999.4
20260503201520 18 113 0.0 3.2 0.00 0.00 0.00 46 999.4
20260503200518 18 52 1.6 3.2 0.00 0.00 0.00 46 999.6
20260503195515 18 0.0 0.0 0.00 0.00 0.00 49 999.6
20260503194613 18 0.0 0.0 0.00 0.00 0.00 47 999.7
20260503193610 18 0.0 0.0 0.00 0.00 0.00 48 999.6
20260503192607 19 0.0 0.0 0.00 0.00 0.00 46 999.6
20260503191605 19 0.0 0.0 0.00 0.00 0.00 44 999.6
20260503190602 20 0.0 0.0 0.00 0.00 0.00 42 999.6
20260503185600 21 0.0 0.0 0.00 0.00 0.00 40 999.6
20260503184557 21 0.0 0.0 0.00 0.00 0.00 39 999.6
20260503183554 22 142 1.6 3.2 0.00 0.00 0.00 37 999.5
20260503182552 22 0.0 0.0 0.00 0.00 0.00 37 999.5
20260503181549 22 141 0.0 3.2 0.00 0.00 0.00 36 999.5
20260503180546 23 135 3.2 3.2 0.00 0.00 0.00 34 999.5
20260503175543 23 135 1.6 6.4 0.00 0.00 0.00 35 999.5
20260503174540 24 140 3.2 6.4 0.00 0.00 0.00 34 999.5
20260503173538 24 153 3.2 6.4 0.00 0.00 0.00 33 999.5
20260503172535 25 144 4.8 9.7 0.00 0.00 0.00 32 999.5
20260503171533 25 154 4.8 9.7 0.00 0.00 0.00 31 999.6
20260503170530 25 149 4.8 9.7 0.00 0.00 0.00 30 999.6
20260503150558 26 135 4.8 17.7 0.00 0.00 0.00 29 1000.1
20260503130526 27 198 9.7 14.5 0.00 0.00 0.00 29 1001.4
20260503110555 26 179 8.0 14.5 0.00 0.00 0.00 31 1002.5
20260503081610 23 168 8.0 14.5 0.00 0.00 0.00 35 1003.5
20260503080607 23 170 8.0 12.9 0.00 0.00 0.00 35 1003.5
20260503072557 22 186 8.0 17.7 0.00 0.00 0.00 37 1003.4
20260503071554 22 184 6.4 12.9 0.00 0.00 0.00 39 1003.5
20260503070551 21 166 6.4 12.9 0.00 0.00 0.00 39 1003.4
20260503054530 14 158 0.0 3.2 0.00 0.00 0.00 61 1003.5
20260503053527 13 0.0 0.0 0.00 0.00 0.00 64 1003.4
20260503052525 12 0.0 0.0 0.00 0.00 0.00 62 1003.3
20260503051522 11 135 1.6 3.2 0.00 0.00 0.00 64 1003.4
20260503050520 11 135 1.6 3.2 0.00 0.00 0.00 65 1003.3
20260503045517 11 135 1.6 3.2 0.00 0.00 0.00 61 1003.3
20260503044614 11 158 0.0 3.2 0.00 0.00 0.00 64 1003.3
20260503043612 12 0.0 0.0 0.00 0.00 0.00 58 1003.4
20260503042609 11 0.0 0.0 0.00 0.00 0.00 58 1003.3
20260503041606 10 0.0 0.0 0.00 0.00 0.00 63 1003.4
20260503040603 12 158 1.6 3.2 0.00 0.00 0.00 56 1003.3
20260503035601 12 158 3.2 3.2 0.00 0.00 0.00 56 1003.2